• în Republica Moldova
  • Lista ţărilor
  • Pe 7 zile
  • Temperatura apei
  • Hartă satelitară
  • Meteo pe hartă
  • Widget-uri
  • user-avatar
    Intrare

    Meteo pe oră la Linz

    Astăzi, 23 Octombrie, Luni

    Timp Temperatura Precipitaţii Vânt Presiune Umiditate
    00:00 +7°C° 0,1 mm 3 m/s 733 mmHg 92%
    01:00 +7°C° 0 mm 3 m/s 732 mmHg 93%
    02:00 +7°C° 0,3 mm 3 m/s 732 mmHg 93%
    03:00 +6°C° 0,3 mm 4 m/s 732 mmHg 92%
    04:00 +6°C° 0,3 mm 5 m/s 732 mmHg 92%
    05:00 +6°C° 0,6 mm 5 m/s 732 mmHg 92%
    06:00 +6°C° 0,6 mm 5 m/s 733 mmHg 92%
    07:00 +6°C° 0 mm 5 m/s 732 mmHg 91%
    08:00 +6°C° 0,4 mm 5 m/s 733 mmHg 90%
    09:00 +7°C° 0,4 mm 5 m/s 733 mmHg 88%
    10:00 +7°C° 0,4 mm 5 m/s 733 mmHg 86%
    11:00 +7°C° 0,2 mm 6 m/s 733 mmHg 85%
    12:00 +8°C° 0,2 mm 6 m/s 733 mmHg 84%
    13:00 +8°C° 0,2 mm 6 m/s 734 mmHg 84%
    14:00 +8°C° 0,2 mm 6 m/s 734 mmHg 85%
    15:00 +7°C° 0,2 mm 5 m/s 734 mmHg 87%
    16:00 +7°C° 0,2 mm 5 m/s 734 mmHg 88%
    17:00 +7°C° 0,3 mm 5 m/s 735 mmHg 89%
    18:00 +7°C° 0,3 mm 4 m/s 735 mmHg 90%
    19:00 +7°C° 0,3 mm 4 m/s 736 mmHg 90%
    20:00 +7°C° 0,3 mm 4 m/s 736 mmHg 91%
    21:00 +7°C° 0,3 mm 4 m/s 736 mmHg 92%
    22:00 +8°C° 0,3 mm 3 m/s 737 mmHg 92%
    23:00 +7°C° 0,1 mm 3 m/s 737 mmHg 93%

    Mâine, 24 Octombrie, Marţi

    Timp Temperatura Precipitaţii Vânt Presiune Umiditate
    00:00 +7°C° 0,1 mm 3 m/s 737 mmHg 94%
    01:00 +7°C° 0,1 mm 3 m/s 738 mmHg 96%
    02:00 +7°C° 0,2 mm 3 m/s 738 mmHg 96%
    03:00 +7°C° 0,2 mm 3 m/s 738 mmHg 96%
    04:00 +8°C° 0,2 mm 3 m/s 738 mmHg 96%
    05:00 +8°C° 0,4 mm 3 m/s 738 mmHg 95%
    06:00 +8°C° 0,4 mm 3 m/s 739 mmHg 95%
    07:00 +8°C° 0,4 mm 3 m/s 739 mmHg 95%
    08:00 +9°C° 0,1 mm 3 m/s 739 mmHg 93%
    09:00 +9°C° 0,1 mm 3 m/s 739 mmHg 91%
    10:00 +10°C° 0,1 mm 3 m/s 740 mmHg 89%
    11:00 +10°C° 0,1 mm 3 m/s 739 mmHg 87%
    12:00 +11°C° 0,1 mm 3 m/s 739 mmHg 84%
    13:00 +12°C° 0,1 mm 3 m/s 739 mmHg 82%
    14:00 +11°C° 0,1 mm 3 m/s 739 mmHg 83%
    15:00 +12°C° 0,1 mm 2 m/s 739 mmHg 85%
    16:00 +12°C° 0,1 mm 2 m/s 739 mmHg 87%
    17:00 +10°C° 0 mm 2 m/s 740 mmHg 89%
    18:00 +11°C° 0 mm 1 m/s 740 mmHg 91%
    19:00 +10°C° 0 mm 1 m/s 740 mmHg 94%
    20:00 +10°C° 0 mm 1 m/s 741 mmHg 93%
    21:00 +10°C° 0 mm 1 m/s 741 mmHg 93%
    22:00 +10°C° 0 mm 1 m/s 741 mmHg 92%
    23:00 +10°C° 0 mm 1 m/s 741 mmHg 92%

    Poimâine, 25 Octombrie, Miercuri

    Timp Temperatura Precipitaţii Vânt Presiune Umiditate
    00:00 +10°C° 0 mm 1 m/s 741 mmHg 92%
    01:00 +10°C° 0 mm 1 m/s 741 mmHg 92%
    02:00 +10°C° 0 mm 1 m/s 741 mmHg 92%
    03:00 +10°C° 0 mm 1 m/s 740 mmHg 92%
    04:00 +9°C° 0 mm 1 m/s 740 mmHg 92%
    05:00 +9°C° 0 mm 1 m/s 740 mmHg 92%
    06:00 +9°C° 0 mm 1 m/s 740 mmHg 92%
    07:00 +9°C° 0 mm 1 m/s 740 mmHg 92%
    08:00 +11°C° 0 mm 1 m/s 740 mmHg 87%
    09:00 +13°C° 0 mm 1 m/s 740 mmHg 82%
    10:00 +15°C° 0 mm 1 m/s 740 mmHg 76%
    11:00 +16°C° 0 mm 1 m/s 740 mmHg 73%
    12:00 +18°C° 0 mm 1 m/s 740 mmHg 71%
    13:00 +19°C° 0 mm 1 m/s 740 mmHg 68%
    14:00 +18°C° 0 mm 1 m/s 740 mmHg 72%
    15:00 +18°C° 0 mm 1 m/s 740 mmHg 75%
    16:00 +16°C° 0 mm 1 m/s 739 mmHg 79%
    17:00 +15°C° 0 mm 1 m/s 740 mmHg 83%
    18:00 +14°C° 0 mm 1 m/s 740 mmHg 87%
    19:00 +12°C° 0 mm 1 m/s 741 mmHg 90%
    20:00 +12°C° 0 mm 1 m/s 741 mmHg 90%
    21:00 +12°C° 0 mm 1 m/s 741 mmHg 91%
    22:00 +12°C° 0 mm 1 m/s 742 mmHg 91%
    23:00 +11°C° 0 mm 1 m/s 742 mmHg 90%

    26 Octombrie, Joi

    Timp Temperatura Precipitaţii Vânt Presiune Umiditate
    00:00 +11°C° 0 mm 1 m/s 742 mmHg 90%
    01:00 +11°C° 0 mm 1 m/s 742 mmHg 90%
    02:00 +11°C° 0 mm 1 m/s 742 mmHg 90%
    03:00 +11°C° 0 mm 1 m/s 741 mmHg 90%
    04:00 +11°C° 0 mm 1 m/s 741 mmHg 90%
    05:00 +10°C° 0 mm 1 m/s 741 mmHg 90%
    06:00 +10°C° 0 mm 1 m/s 741 mmHg 90%
    07:00 +10°C° 0 mm 1 m/s 741 mmHg 90%
    08:00 +12°C° 0 mm 1 m/s 741 mmHg 84%
    09:00 +14°C° 0 mm 1 m/s 741 mmHg 78%
    10:00 +16°C° 0 mm 1 m/s 741 mmHg 73%
    11:00 +18°C° 0 mm 1 m/s 741 mmHg 70%
    12:00 +19°C° 0 mm 1 m/s 740 mmHg 67%
    13:00 +19°C° 0 mm 2 m/s 740 mmHg 64%
    14:00 +19°C° 0 mm 1 m/s 740 mmHg 68%
    15:00 +19°C° 0 mm 1 m/s 740 mmHg 73%
    16:00 +18°C° 0 mm 1 m/s 739 mmHg 78%
    17:00 +16°C° 0 mm 1 m/s 739 mmHg 82%
    18:00 +14°C° 0 mm 1 m/s 740 mmHg 85%
    19:00 +13°C° 0 mm 1 m/s 740 mmHg 89%
    20:00 +13°C° 0 mm 1 m/s 740 mmHg 89%
    21:00 +12°C° 0 mm 1 m/s 740 mmHg 88%
    22:00 +12°C° 0 mm 1 m/s 740 mmHg 88%
    23:00 +12°C° 0 mm 1 m/s 739 mmHg 87%

    27 Octombrie, Vineri

    Timp Temperatura Precipitaţii Vânt Presiune Umiditate
    00:00 +12°C° 0 mm 2 m/s 739 mmHg 86%
    01:00 +12°C° 0 mm 2 m/s 739 mmHg 86%
    02:00 +12°C° 0 mm 2 m/s 738 mmHg 85%
    03:00 +10°C° 0 mm 2 m/s 738 mmHg 85%
    04:00 +10°C° 0 mm 2 m/s 738 mmHg 84%
    05:00 +10°C° 0 mm 2 m/s 737 mmHg 84%
    06:00 +10°C° 0 mm 2 m/s 737 mmHg 84%
    07:00 +10°C° 0 mm 2 m/s 737 mmHg 84%
    08:00 +11°C° 0 mm 3 m/s 737 mmHg 81%
    09:00 +13°C° 0 mm 3 m/s 736 mmHg 79%
    10:00 +14°C° 0 mm 4 m/s 736 mmHg 76%
    11:00 +14°C° 0,1 mm 4 m/s 735 mmHg 77%
    12:00 +14°C° 0,1 mm 4 m/s 735 mmHg 79%
    13:00 +14°C° 0,1 mm 4 m/s 735 mmHg 80%
    14:00 +14°C° 0,6 mm 4 m/s 734 mmHg 83%
    15:00 +13°C° 0,6 mm 5 m/s 734 mmHg 86%
    16:00 +13°C° 0,6 mm 5 m/s 734 mmHg 89%
    17:00 +12°C° 1,7 mm 4 m/s 735 mmHg 90%
    18:00 +11°C° 1,7 mm 3 m/s 735 mmHg 92%
    19:00 +10°C° 1,7 mm 3 m/s 735 mmHg 93%
    20:00 +9°C° 0,6 mm 3 m/s 736 mmHg 92%
    21:00 +9°C° 0,6 mm 3 m/s 736 mmHg 91%
    22:00 +8°C° 0,6 mm 4 m/s 737 mmHg 90%
    23:00 +7°C° 0,2 mm 4 m/s 737 mmHg 91%

    28 Octombrie, Sâmbătă

    Timp Temperatura Precipitaţii Vânt Presiune Umiditate
    00:00 +7°C° 0,2 mm 4 m/s 737 mmHg 92%
    01:00 +6°C° 0,2 mm 4 m/s 737 mmHg 94%
    02:00 +6°C° 0 mm 4 m/s 737 mmHg 93%
    03:00 +6°C° 0 mm 4 m/s 737 mmHg 93%
    04:00 +5°C° 0 mm 4 m/s 737 mmHg 93%
    05:00 +5°C° 0 mm 4 m/s 737 mmHg 92%
    06:00 +5°C° 0 mm 4 m/s 737 mmHg 92%
    07:00 +5°C° 0 mm 4 m/s 737 mmHg 91%
    08:00 +5°C° 0,1 mm 5 m/s 737 mmHg 89%
    09:00 +6°C° 0,1 mm 5 m/s 737 mmHg 87%
    10:00 +5°C° 0,1 mm 6 m/s 737 mmHg 85%
    11:00 +7°C° 0,4 mm 6 m/s 737 mmHg 83%
    12:00 +7°C° 0,4 mm 6 m/s 736 mmHg 82%
    13:00 +6°C° 0,4 mm 7 m/s 736 mmHg 81%
    14:00 +7°C° 0,4 mm 6 m/s 736 mmHg 82%
    15:00 +7°C° 0,4 mm 6 m/s 736 mmHg 83%
    16:00 +7°C° 0,4 mm 6 m/s 735 mmHg 84%
    17:00 +5°C° 0,4 mm 6 m/s 736 mmHg 85%
    18:00 +5°C° 0,4 mm 6 m/s 736 mmHg 87%
    19:00 +5°C° 0,4 mm 6 m/s 736 mmHg 88%
    20:00 +5°C° 0,4 mm 6 m/s 736 mmHg 88%
    21:00 +5°C° 0,4 mm 6 m/s 736 mmHg 89%
    22:00 +5°C° 0,4 mm 6 m/s 736 mmHg 90%
    23:00 +5°C° 0,4 mm 6 m/s 736 mmHg 90%

    29 Octombrie, Duminică

    Timp Temperatura Precipitaţii Vânt Presiune Umiditate
    00:00 +5°C° 0,4 mm 6 m/s 736 mmHg 91%
    01:00 +7°C° 0,4 mm 6 m/s 736 mmHg 91%
    02:00 +7°C° 0,2 mm 6 m/s 736 mmHg 91%
    03:00 +7°C° 0,2 mm 6 m/s 736 mmHg 91%
    04:00 +7°C° 0,2 mm 6 m/s 736 mmHg 91%
    05:00 +7°C° 0,1 mm 6 m/s 736 mmHg 91%
    06:00 +7°C° 0,1 mm 6 m/s 736 mmHg 91%
    07:00 +5°C° 0,1 mm 6 m/s 736 mmHg 91%
    08:00 +7°C° 0,1 mm 6 m/s 736 mmHg 90%
    09:00 +7°C° 0,1 mm 6 m/s 736 mmHg 89%
    10:00 +7°C° 0,1 mm 6 m/s 736 mmHg 88%
    11:00 +7°C° 0,1 mm 6 m/s 736 mmHg 87%
    12:00 +8°C° 0,1 mm 5 m/s 735 mmHg 87%
    13:00 +8°C° 0,1 mm 5 m/s 735 mmHg 86%
    14:00 +8°C° 0,2 mm 5 m/s 734 mmHg 87%
    15:00 +8°C° 0,2 mm 5 m/s 734 mmHg 88%
    16:00 +8°C° 0,2 mm 4 m/s 734 mmHg 88%
    17:00 +7°C° 0,5 mm 4 m/s 734 mmHg 89%
    18:00 +7°C° 0,5 mm 5 m/s 734 mmHg 91%
    19:00 +7°C° 0,5 mm 5 m/s 734 mmHg 92%
    20:00 +7°C° 0,1 mm 5 m/s 733 mmHg 91%
    21:00 +7°C° 0,1 mm 5 m/s 733 mmHg 90%
    22:00 +7°C° 0,1 mm 5 m/s 733 mmHg 89%
    23:00 +6°C° 0 mm 4 m/s 733 mmHg 90%
    Arată mai mult